Language: 


Des rapports , des résumés tant et plus, au choix de chacun....


Données statistiques de la station
Quotidien Rapport Mars 31, 2017 Unités:  Métrique    Anglais   les deux
« Précédent Jour
Suivant Jour »
Quotidien Hebdomadaire Mensuel Annuel Actuel
  Haut: Bas: Moyen:
Température: 20.2 °C 8.7 °C 14.3 °C
Pt de rosée: 11.9 °C 6.3 °C 8.5 °C
Humidité: 90 % 49 % 69 %
Vitesse du vent: 23.3 km/h 0.0 km/h 7.2 km/h
Rafales: 32.0 km/h - -
Vent:- - SW
Pression: 1016.1 hPa 1010.0 hPa -
Précipitation: 0.0 mm    
Historical Graphs
 
 
Données statistiques pour Mars 31, 2017
Heure Température Point de rosée Pression Vent Vitesse du vent Refales Humidité Pluie (taux horaire)
00:00 15.3 °C 8.1 °C 1016.1 hPa Calm   5.8 km/h 62 % 0.0 mm
00:06 14.7 °C 7.9 °C 1016.1 hPa Calm   5.8 km/h 64 % 0.0 mm
00:11 14.7 °C 7.9 °C 1016.1 hPa Calm   4.7 km/h 64 % 0.0 mm
00:16 14.4 °C 7.9 °C 1016.1 hPa SE 4.3 km/h 4.7 km/h 65 % 0.0 mm
00:21 14.2 °C 7.7 °C 1016.1 hPa ESE 4.7 km/h 5.8 km/h 65 % 0.0 mm
00:26 14.2 °C 7.7 °C 1016.1 hPa Calm   5.8 km/h 65 % 0.0 mm
00:27 14.2 °C 7.7 °C 1016.1 hPa Calm   5.8 km/h 65 % 0.0 mm
00:32 14.2 °C 7.7 °C 1016.1 hPa SSE 4.7 km/h 5.8 km/h 65 % 0.0 mm
00:37 14.2 °C 7.7 °C 1016.1 hPa SE 6.9 km/h 9.0 km/h 65 % 0.0 mm
00:42 14.2 °C 7.7 °C 1015.1 hPa SE 6.4 km/h 9.0 km/h 65 % 0.0 mm
00:47 14.2 °C 7.7 °C 1015.1 hPa SSE 6.9 km/h 7.9 km/h 65 % 0.0 mm
00:52 14.2 °C 7.7 °C 1015.1 hPa SSE 6.9 km/h 10.5 km/h 65 % 0.0 mm
00:57 14.2 °C 7.7 °C 1015.1 hPa Calm   10.5 km/h 65 % 0.0 mm
01:02 14.2 °C 7.7 °C 1015.1 hPa SE 6.9 km/h 9.3 km/h 65 % 0.0 mm
01:07 14.2 °C 7.7 °C 1015.1 hPa SSE 6.1 km/h 9.3 km/h 65 % 0.0 mm
01:12 14.2 °C 7.7 °C 1015.1 hPa SSE 4.3 km/h 10.5 km/h 65 % 0.0 mm
01:17 14.2 °C 7.7 °C 1015.1 hPa SSE 6.4 km/h 11.9 km/h 65 % 0.0 mm
01:22 14.2 °C 7.7 °C 1015.1 hPa South 6.9 km/h 11.9 km/h 65 % 0.0 mm
01:27 14.2 °C 7.7 °C 1014.1 hPa SSE 3.2 km/h 10.5 km/h 65 % 0.0 mm
01:32 14.2 °C 7.7 °C 1014.1 hPa SSE 6.9 km/h 11.6 km/h 65 % 0.0 mm
01:37 14.2 °C 7.7 °C 1014.1 hPa SSE 8.7 km/h 13.7 km/h 65 % 0.0 mm
01:42 14.2 °C 7.7 °C 1015.1 hPa SSE 6.9 km/h 13.7 km/h 65 % 0.0 mm
01:47 14.2 °C 7.7 °C 1015.1 hPa SSE 10.5 km/h 11.6 km/h 65 % 0.0 mm
01:52 14.2 °C 7.7 °C 1015.1 hPa SSE 1.4 km/h 11.6 km/h 65 % 0.0 mm
01:57 14.2 °C 7.7 °C 1015.1 hPa Calm   9.7 km/h 65 % 0.0 mm
02:02 14.2 °C 7.7 °C 1015.1 hPa SSE 6.4 km/h 10.1 km/h 65 % 0.0 mm
02:07 14.2 °C 7.7 °C 1015.1 hPa South 6.9 km/h 12.6 km/h 65 % 0.0 mm
02:12 14.2 °C 7.7 °C 1015.1 hPa SSW 4.0 km/h 12.6 km/h 65 % 0.0 mm
02:14 14.2 °C 7.7 °C 1015.1 hPa Calm   12.6 km/h 65 % 0.0 mm
02:19 14.2 °C 7.7 °C 1015.1 hPa SSE 13.0 km/h 13.0 km/h 65 % 0.0 mm
02:24 14.2 °C 7.7 °C 1015.1 hPa South 5.8 km/h 13.0 km/h 65 % 0.0 mm
02:29 14.2 °C 7.7 °C 1015.1 hPa SSE 5.5 km/h 14.0 km/h 65 % 0.0 mm
02:34 14.2 °C 7.7 °C 1015.1 hPa SSE 10.5 km/h 14.0 km/h 65 % 0.0 mm
02:39 14.2 °C 7.7 °C 1014.1 hPa South 4.0 km/h 11.9 km/h 65 % 0.0 mm
02:44 14.2 °C 7.7 °C 1014.1 hPa South 7.9 km/h 11.9 km/h 65 % 0.0 mm
02:49 14.2 °C 7.7 °C 1014.1 hPa SSE 5.0 km/h 11.6 km/h 65 % 0.0 mm
02:54 14.2 °C 7.7 °C 1014.1 hPa SSE 9.7 km/h 13.0 km/h 65 % 0.0 mm
02:59 14.2 °C 7.7 °C 1014.1 hPa Calm   13.0 km/h 65 % 0.0 mm
03:04 14.2 °C 7.7 °C 1014.1 hPa SSW 1.8 km/h 10.5 km/h 65 % 0.0 mm
03:09 14.2 °C 7.7 °C 1014.1 hPa South 1.4 km/h 10.5 km/h 65 % 0.0 mm
03:14 14.2 °C 7.7 °C 1014.1 hPa South 6.9 km/h 10.5 km/h 65 % 0.0 mm
03:19 14.2 °C 7.7 °C 1014.1 hPa South 5.0 km/h 10.5 km/h 65 % 0.0 mm
03:24 14.2 °C 7.7 °C 1013.1 hPa SSE 4.3 km/h 10.5 km/h 65 % 0.0 mm
03:29 14.2 °C 7.7 °C 1013.1 hPa South 6.1 km/h 13.0 km/h 65 % 0.0 mm
03:34 14.2 °C 7.7 °C 1013.1 hPa Calm   13.0 km/h 65 % 0.0 mm
03:39 14.2 °C 7.7 °C 1013.1 hPa Calm   11.9 km/h 65 % 0.0 mm
03:44 14.2 °C 7.7 °C 1013.1 hPa SSW 6.9 km/h 12.6 km/h 65 % 0.0 mm
03:49 14.2 °C 7.7 °C 1013.1 hPa SSE 3.2 km/h 12.6 km/h 65 % 0.0 mm
03:54 14.2 °C 7.7 °C 1013.1 hPa SSE 9.0 km/h 10.5 km/h 65 % 0.0 mm
03:59 14.2 °C 7.7 °C 1013.1 hPa Calm   10.5 km/h 65 % 0.0 mm
04:04 14.2 °C 7.7 °C 1013.1 hPa SSE 6.4 km/h 10.1 km/h 65 % 0.0 mm
04:09 14.2 °C 7.7 °C 1013.1 hPa South 1.8 km/h 11.6 km/h 65 % 0.0 mm
04:14 14.2 °C 7.7 °C 1013.1 hPa SSW 1.8 km/h 11.6 km/h 65 % 0.0 mm
04:19 14.2 °C 7.7 °C 1013.1 hPa SSE 5.5 km/h 9.0 km/h 65 % 0.0 mm
04:24 14.2 °C 7.7 °C 1013.1 hPa South 3.2 km/h 8.7 km/h 65 % 0.0 mm
04:29 14.2 °C 7.7 °C 1013.1 hPa South 6.4 km/h 7.6 km/h 65 % 0.0 mm
04:34 14.2 °C 7.7 °C 1013.1 hPa South 6.9 km/h 6.9 km/h 65 % 0.0 mm
04:39 12.9 °C 7.4 °C 1013.1 hPa SSE 1.4 km/h 7.6 km/h 69 % 0.0 mm
04:44 12.9 °C 7.4 °C 1013.1 hPa Calm   9.0 km/h 69 % 0.0 mm
04:49 12.9 °C 7.4 °C 1013.1 hPa Calm   9.0 km/h 69 % 0.0 mm
04:54 12.9 °C 7.4 °C 1013.1 hPa Calm   6.9 km/h 69 % 0.0 mm
04:59 12.6 °C 7.2 °C 1013.1 hPa South 6.4 km/h 6.9 km/h 70 % 0.0 mm
05:04 12.6 °C 7.2 °C 1013.1 hPa Calm   9.0 km/h 70 % 0.0 mm
05:09 12.6 °C 7.2 °C 1013.1 hPa Calm   9.0 km/h 70 % 0.0 mm
05:14 12.4 °C 7.3 °C 1013.1 hPa Calm   9.0 km/h 71 % 0.0 mm
05:19 12.4 °C 7.3 °C 1013.1 hPa SSE 2.6 km/h 7.9 km/h 71 % 0.0 mm
05:24 12.4 °C 7.3 °C 1012.1 hPa Calm   12.6 km/h 71 % 0.0 mm
05:29 12.4 °C 7.3 °C 1012.1 hPa Calm   12.6 km/h 71 % 0.0 mm
05:34 12.4 °C 7.3 °C 1012.1 hPa Calm   6.9 km/h 71 % 0.0 mm
05:39 12.4 °C 7.3 °C 1012.1 hPa South 2.1 km/h 6.9 km/h 71 % 0.0 mm
05:44 12.1 °C 6.9 °C 1012.1 hPa Calm   7.9 km/h 71 % 0.0 mm
05:49 12.1 °C 6.9 °C 1012.1 hPa Calm   7.9 km/h 71 % 0.0 mm
05:54 12.1 °C 6.9 °C 1011.1 hPa Calm   7.9 km/h 71 % 0.0 mm
05:59 12.1 °C 7.2 °C 1011.1 hPa Calm   9.0 km/h 72 % 0.0 mm
06:04 12.1 °C 7.2 °C 1011.1 hPa SE 7.9 km/h 9.0 km/h 72 % 0.0 mm
06:09 12.1 °C 7.2 °C 1011.1 hPa SSE 6.1 km/h 9.3 km/h 72 % 0.0 mm
06:14 12.1 °C 7.2 °C 1011.1 hPa Calm   9.3 km/h 72 % 0.0 mm
06:19 12.1 °C 7.2 °C 1011.1 hPa SE 5.8 km/h 7.6 km/h 72 % 0.0 mm
06:24 12.1 °C 7.2 °C 1011.1 hPa Calm   6.4 km/h 72 % 0.0 mm
06:29 12.1 °C 7.2 °C 1011.1 hPa SSE 2.6 km/h 9.3 km/h 72 % 0.0 mm
06:34 12.1 °C 7.2 °C 1011.1 hPa South 1.8 km/h 11.1 km/h 72 % 0.0 mm
06:39 12.1 °C 7.2 °C 1011.1 hPa SSE 4.7 km/h 11.1 km/h 72 % 0.0 mm
06:44 12.1 °C 7.2 °C 1011.1 hPa SSE 9.7 km/h 9.7 km/h 72 % 0.0 mm
06:49 12.1 °C 7.2 °C 1011.1 hPa SSE 5.5 km/h 9.7 km/h 72 % 0.0 mm
06:54 11.8 °C 7.2 °C 1011.1 hPa Calm   9.3 km/h 73 % 0.0 mm
06:59 11.8 °C 7.2 °C 1011.1 hPa Calm   9.7 km/h 73 % 0.0 mm
07:04 11.8 °C 7.2 °C 1011.1 hPa South 10.1 km/h 10.1 km/h 73 % 0.0 mm
07:05 11.8 °C 7.2 °C 1011.1 hPa South 7.9 km/h 10.1 km/h 73 % 0.0 mm
07:10 11.8 °C 7.2 °C 1011.1 hPa SSE 2.6 km/h 10.1 km/h 73 % 0.0 mm
07:16 11.7 °C 7.0 °C 1011.1 hPa Calm   9.3 km/h 73 % 0.0 mm
07:21 11.7 °C 7.0 °C 1011.1 hPa SSE 6.4 km/h 10.5 km/h 73 % 0.0 mm
07:26 11.7 °C 7.0 °C 1011.1 hPa Calm   10.5 km/h 73 % 0.0 mm
07:31 11.7 °C 7.0 °C 1011.1 hPa SSE 1.8 km/h 7.9 km/h 73 % 0.0 mm
07:36 11.7 °C 7.0 °C 1011.1 hPa Calm   7.9 km/h 73 % 0.0 mm
07:41 11.3 °C 6.6 °C 1011.1 hPa Calm   4.7 km/h 73 % 0.0 mm
07:46 11.2 °C 6.7 °C 1011.1 hPa South 7.6 km/h 9.0 km/h 74 % 0.0 mm
07:51 11.3 °C 6.8 °C 1011.1 hPa SSE 5.8 km/h 9.0 km/h 74 % 0.0 mm
08:01 11.4 °C 7.0 °C 1011.1 hPa SSE 3.2 km/h 7.9 km/h 74 % 0.0 mm
08:06 11.6 °C 7.1 °C 1011.1 hPa SSE 8.7 km/h 8.7 km/h 74 % 0.0 mm
08:11 11.7 °C 7.2 °C 1010.0 hPa South 4.7 km/h 10.5 km/h 74 % 0.0 mm
08:16 11.8 °C 7.4 °C 1010.0 hPa Calm   10.5 km/h 74 % 0.0 mm
08:21 12.1 °C 7.6 °C 1010.0 hPa SSW 10.1 km/h 13.0 km/h 74 % 0.0 mm
08:26 12.2 °C 7.7 °C 1010.0 hPa WSW 9.3 km/h 13.7 km/h 74 % 0.0 mm
08:31 12.4 °C 7.9 °C 1010.0 hPa WSW 6.4 km/h 13.7 km/h 74 % 0.0 mm
08:36 12.7 °C 8.1 °C 1010.0 hPa Calm   13.7 km/h 74 % 0.0 mm
08:41 12.8 °C 8.1 °C 1011.1 hPa SSW 7.6 km/h 11.6 km/h 73 % 0.0 mm
08:46 12.9 °C 8.2 °C 1011.1 hPa SSW 6.4 km/h 10.1 km/h 73 % 0.0 mm
08:51 13.1 °C 8.1 °C 1011.1 hPa SSW 10.1 km/h 11.6 km/h 72 % 0.0 mm
08:56 13.2 °C 8.3 °C 1012.1 hPa SW 6.4 km/h 11.6 km/h 72 % 0.0 mm
09:01 13.5 °C 8.6 °C 1012.1 hPa South 6.9 km/h 9.7 km/h 72 % 0.0 mm
09:06 13.7 °C 8.8 °C 1012.1 hPa South 5.8 km/h 9.3 km/h 72 % 0.0 mm
09:11 14.1 °C 8.9 °C 1011.1 hPa Calm   10.1 km/h 71 % 0.0 mm
09:16 14.4 °C 9.2 °C 1011.1 hPa South 11.6 km/h 11.6 km/h 71 % 0.0 mm
09:21 14.7 °C 9.1 °C 1011.1 hPa Calm   11.6 km/h 69 % 0.0 mm
09:27 15.0 °C 9.3 °C 1011.1 hPa South 11.9 km/h 14.0 km/h 69 % 0.0 mm
09:32 15.0 °C 9.1 °C 1011.1 hPa SSE 9.3 km/h 14.0 km/h 68 % 0.0 mm
09:37 14.9 °C 8.6 °C 1011.1 hPa South 10.5 km/h 14.0 km/h 66 % 0.0 mm
09:38 14.9 °C 8.6 °C 1011.1 hPa SSW 10.1 km/h 14.0 km/h 66 % 0.0 mm
09:43 14.9 °C 8.6 °C 1011.1 hPa SSW 13.0 km/h 13.0 km/h 66 % 0.0 mm
09:48 14.9 °C 8.6 °C 1011.1 hPa South 7.9 km/h 15.8 km/h 66 % 0.0 mm
09:53 14.9 °C 8.4 °C 1012.1 hPa SSE 6.4 km/h 15.8 km/h 65 % 0.0 mm
09:58 14.8 °C 8.5 °C 1012.1 hPa South 12.6 km/h 13.7 km/h 66 % 0.0 mm
10:03 14.9 °C 8.4 °C 1012.1 hPa SSW 5.5 km/h 13.7 km/h 65 % 0.0 mm
10:08 14.9 °C 8.4 °C 1011.1 hPa South 9.7 km/h 15.8 km/h 65 % 0.0 mm
10:13 15.0 °C 8.4 °C 1011.1 hPa South 5.8 km/h 15.8 km/h 65 % 0.0 mm
10:18 15.0 °C 8.4 °C 1011.1 hPa South 10.5 km/h 16.3 km/h 65 % 0.0 mm
10:23 15.4 °C 8.6 °C 1011.1 hPa South 13.0 km/h 17.2 km/h 64 % 0.0 mm
10:28 15.6 °C 9.0 °C 1011.1 hPa South 13.0 km/h 17.2 km/h 65 % 0.0 mm
10:33 16.0 °C 9.2 °C 1011.1 hPa SSW 10.5 km/h 16.9 km/h 64 % 0.0 mm
10:38 16.2 °C 8.9 °C 1011.1 hPa South 9.7 km/h 16.9 km/h 62 % 0.0 mm
10:43 16.4 °C 9.4 °C 1011.1 hPa South 13.0 km/h 17.7 km/h 63 % 0.0 mm
10:48 16.8 °C 8.9 °C 1011.1 hPa SSE 12.2 km/h 17.7 km/h 60 % 0.0 mm
10:53 16.9 °C 8.9 °C 1011.1 hPa SSW 15.4 km/h 17.7 km/h 59 % 0.0 mm
10:58 17.1 °C 8.7 °C 1011.1 hPa SSW 10.1 km/h 19.5 km/h 58 % 0.0 mm
11:03 17.1 °C 8.4 °C 1011.1 hPa WSW 7.6 km/h 23.8 km/h 57 % 0.0 mm
11:08 17.2 °C 8.9 °C 1011.1 hPa SSW 10.5 km/h 23.8 km/h 58 % 0.0 mm
11:13 17.6 °C 8.9 °C 1011.1 hPa WSW 16.3 km/h 19.8 km/h 57 % 0.0 mm
11:18 17.7 °C 8.8 °C 1011.1 hPa SW 11.1 km/h 16.6 km/h 56 % 0.0 mm
11:23 18.1 °C 9.4 °C 1011.1 hPa WSW 12.6 km/h 16.6 km/h 57 % 0.0 mm
11:28 18.2 °C 8.8 °C 1011.1 hPa SW 20.6 km/h 21.2 km/h 54 % 0.0 mm
11:33 18.5 °C 9.1 °C 1011.1 hPa WSW 11.6 km/h 21.2 km/h 54 % 0.0 mm
11:38 18.6 °C 8.6 °C 1011.1 hPa South 10.5 km/h 20.6 km/h 52 % 0.0 mm
11:43 18.9 °C 8.8 °C 1011.1 hPa WSW 16.3 km/h 19.5 km/h 52 % 0.0 mm
11:48 19.1 °C 8.7 °C 1011.1 hPa SSW 10.1 km/h 23.3 km/h 51 % 0.0 mm
11:53 19.3 °C 8.9 °C 1011.1 hPa SW 13.0 km/h 23.3 km/h 51 % 0.0 mm
11:58 19.5 °C 8.8 °C 1011.1 hPa SW 17.7 km/h 23.0 km/h 50 % 0.0 mm
12:03 19.3 °C 8.6 °C 1011.1 hPa WSW 13.7 km/h 23.0 km/h 50 % 0.0 mm
12:08 19.8 °C 9.1 °C 1011.1 hPa WSW 16.6 km/h 21.2 km/h 50 % 0.0 mm
12:13 20.2 °C 9.4 °C 1011.1 hPa WSW 13.0 km/h 21.2 km/h 50 % 0.0 mm
12:18 19.4 °C 8.4 °C 1011.1 hPa WSW 20.9 km/h 26.2 km/h 49 % 0.0 mm
12:23 19.0 °C 8.3 °C 1012.1 hPa WSW 17.2 km/h 26.2 km/h 50 % 0.0 mm
12:28 19.1 °C 8.7 °C 1012.1 hPa West 14.0 km/h 27.0 km/h 51 % 0.0 mm
12:33 19.0 °C 8.7 °C 1012.1 hPa WSW 12.2 km/h 27.0 km/h 51 % 0.0 mm
12:39 19.0 °C 8.9 °C 1012.1 hPa SW 17.2 km/h 25.9 km/h 52 % 0.0 mm
12:49 18.3 °C 8.6 °C 1012.1 hPa WSW 17.2 km/h 29.9 km/h 53 % 0.0 mm
12:54 17.9 °C 8.5 °C 1011.1 hPa WSW 16.9 km/h 29.9 km/h 54 % 0.0 mm
12:59 17.6 °C 8.7 °C 1011.1 hPa West 12.6 km/h 24.8 km/h 56 % 0.0 mm
13:04 17.1 °C 9.4 °C 1011.1 hPa WSW 9.7 km/h 20.9 km/h 61 % 0.0 mm
13:09 16.7 °C 9.8 °C 1012.1 hPa WSW 12.6 km/h 19.5 km/h 64 % 0.0 mm
13:14 16.4 °C 10.3 °C 1012.1 hPa West 12.6 km/h 19.8 km/h 67 % 0.0 mm
13:19 16.4 °C 11.0 °C 1012.1 hPa SSW 14.8 km/h 20.6 km/h 70 % 0.0 mm
13:24 16.3 °C 10.6 °C 1013.1 hPa WSW 12.6 km/h 20.6 km/h 69 % 0.0 mm
13:29 16.3 °C 10.8 °C 1013.1 hPa WSW 19.5 km/h 20.9 km/h 70 % 0.0 mm
13:34 16.2 °C 10.7 °C 1013.1 hPa West 15.8 km/h 22.7 km/h 70 % 0.0 mm
13:39 16.3 °C 10.8 °C 1013.1 hPa WSW 14.3 km/h 22.7 km/h 70 % 0.0 mm
13:44 16.4 °C 11.1 °C 1013.1 hPa WSW 14.0 km/h 21.2 km/h 71 % 0.0 mm
13:49 16.7 °C 11.2 °C 1013.1 hPa WSW 11.9 km/h 20.1 km/h 70 % 0.0 mm
13:54 16.8 °C 11.3 °C 1013.1 hPa SW 10.8 km/h 17.7 km/h 70 % 0.0 mm
13:59 16.9 °C 11.0 °C 1013.1 hPa WSW 15.8 km/h 16.3 km/h 68 % 0.0 mm
14:04 16.8 °C 10.6 °C 1013.1 hPa West 14.0 km/h 16.9 km/h 67 % 0.0 mm
14:09 16.7 °C 10.5 °C 1013.1 hPa West 12.6 km/h 17.2 km/h 67 % 0.0 mm
14:14 16.6 °C 10.6 °C 1013.1 hPa West 17.2 km/h 20.9 km/h 68 % 0.0 mm
14:19 16.6 °C 10.6 °C 1013.1 hPa West 16.3 km/h 26.7 km/h 68 % 0.0 mm
14:24 16.7 °C 10.9 °C 1013.1 hPa West 16.9 km/h 26.7 km/h 69 % 0.0 mm
14:29 16.6 °C 11.1 °C 1013.1 hPa West 20.6 km/h 20.6 km/h 70 % 0.0 mm
14:34 16.4 °C 10.9 °C 1013.1 hPa WSW 16.6 km/h 20.6 km/h 70 % 0.0 mm
14:35 16.3 °C 10.6 °C 1013.1 hPa WSW 17.2 km/h 20.6 km/h 69 % 0.0 mm
14:40 16.1 °C 10.6 °C 1013.1 hPa WSW 19.5 km/h 20.6 km/h 70 % 0.0 mm
14:45 16.0 °C 10.5 °C 1013.1 hPa West 16.3 km/h 23.8 km/h 70 % 0.0 mm
14:50 15.9 °C 10.6 °C 1013.1 hPa WSW 23.3 km/h 26.2 km/h 71 % 0.0 mm
14:55 16.3 °C 11.0 °C 1013.1 hPa WSW 13.7 km/h 26.2 km/h 71 % 0.0 mm
15:00 16.7 °C 11.2 °C 1013.1 hPa WSW 17.7 km/h 20.6 km/h 70 % 0.0 mm
15:05 16.8 °C 11.3 °C 1013.1 hPa WSW 15.8 km/h 20.9 km/h 70 % 0.0 mm
15:10 17.7 °C 11.9 °C 1013.1 hPa WSW 16.9 km/h 20.9 km/h 69 % 0.0 mm
15:15 17.6 °C 11.6 °C 1013.1 hPa WNW 14.0 km/h 20.1 km/h 68 % 0.0 mm
15:20 17.3 °C 11.2 °C 1013.1 hPa WSW 16.3 km/h 20.1 km/h 67 % 0.0 mm
15:25 17.2 °C 11.1 °C 1013.1 hPa WSW 9.7 km/h 19.8 km/h 67 % 0.0 mm
15:30 17.1 °C 10.7 °C 1013.1 hPa WSW 16.3 km/h 16.3 km/h 66 % 0.0 mm
15:35 16.7 °C 10.5 °C 1013.1 hPa West 13.7 km/h 16.6 km/h 67 % 0.0 mm
15:40 16.4 °C 10.2 °C 1013.1 hPa WSW 10.5 km/h 16.6 km/h 67 % 0.0 mm
15:45 16.3 °C 10.3 °C 1013.1 hPa West 15.8 km/h 19.5 km/h 68 % 0.0 mm
15:50 16.3 °C 10.3 °C 1013.1 hPa WSW 13.0 km/h 19.5 km/h 68 % 0.0 mm
15:55 16.3 °C 10.6 °C 1012.1 hPa West 16.9 km/h 17.7 km/h 69 % 0.0 mm
16:00 16.3 °C 10.6 °C 1012.1 hPa WNW 19.5 km/h 19.5 km/h 69 % 0.0 mm
16:05 16.6 °C 10.8 °C 1012.1 hPa WSW 12.6 km/h 19.8 km/h 69 % 0.0 mm
16:10 16.8 °C 11.1 °C 1012.1 hPa West 15.8 km/h 19.8 km/h 69 % 0.0 mm
16:15 16.8 °C 11.1 °C 1012.1 hPa WSW 9.7 km/h 19.8 km/h 69 % 0.0 mm
16:20 16.7 °C 10.7 °C 1012.1 hPa WSW 10.1 km/h 19.8 km/h 68 % 0.0 mm
16:26 16.4 °C 10.8 °C 1012.1 hPa SW 17.2 km/h 22.4 km/h 69 % 0.0 mm
16:31 16.3 °C 10.6 °C 1012.1 hPa WSW 17.2 km/h 22.4 km/h 69 % 0.0 mm
16:36 16.4 °C 10.8 °C 1012.1 hPa West 15.4 km/h 19.8 km/h 69 % 0.0 mm
16:41 16.7 °C 10.9 °C 1012.1 hPa WSW 11.9 km/h 17.7 km/h 69 % 0.0 mm
16:46 16.7 °C 11.2 °C 1012.1 hPa West 15.4 km/h 17.7 km/h 70 % 0.0 mm
16:51 16.3 °C 10.8 °C 1012.1 hPa West 12.2 km/h 17.7 km/h 70 % 0.0 mm
16:56 16.3 °C 10.8 °C 1012.1 hPa WSW 15.1 km/h 17.2 km/h 70 % 0.0 mm
17:01 16.4 °C 11.2 °C 1012.1 hPa West 7.6 km/h 16.6 km/h 71 % 0.0 mm
17:06 17.3 °C 11.8 °C 1012.1 hPa West 14.0 km/h 16.9 km/h 70 % 0.0 mm
17:11 17.7 °C 11.9 °C 1012.1 hPa West 8.7 km/h 16.9 km/h 69 % 0.0 mm
17:16 17.6 °C 11.6 °C 1012.1 hPa West 11.9 km/h 16.9 km/h 68 % 0.0 mm
17:21 17.7 °C 11.4 °C 1012.1 hPa WNW 12.2 km/h 18.3 km/h 67 % 0.0 mm
17:26 17.9 °C 11.7 °C 1012.1 hPa West 13.7 km/h 18.3 km/h 67 % 0.0 mm
17:31 17.9 °C 11.5 °C 1012.1 hPa West 12.2 km/h 16.6 km/h 66 % 0.0 mm
17:36 18.1 °C 11.3 °C 1012.1 hPa West 14.0 km/h 16.3 km/h 65 % 0.0 mm
17:41 18.1 °C 11.4 °C 1012.1 hPa West 12.6 km/h 17.7 km/h 65 % 0.0 mm
17:46 18.2 °C 11.6 °C 1012.1 hPa West 13.0 km/h 17.7 km/h 65 % 0.0 mm
17:51 18.1 °C 11.1 °C 1012.1 hPa WSW 13.7 km/h 16.6 km/h 64 % 0.0 mm
17:56 17.2 °C 10.1 °C 1012.1 hPa West 13.7 km/h 21.2 km/h 63 % 0.0 mm
18:01 16.8 °C 10.0 °C 1012.1 hPa West 13.7 km/h 21.2 km/h 64 % 0.0 mm
18:06 16.4 °C 9.8 °C 1012.1 hPa WSW 17.7 km/h 18.3 km/h 65 % 0.0 mm
18:11 16.2 °C 9.6 °C 1011.1 hPa WSW 13.0 km/h 18.3 km/h 65 % 0.0 mm
18:16 16.1 °C 9.5 °C 1011.1 hPa West 14.0 km/h 17.2 km/h 65 % 0.0 mm
18:21 16.0 °C 9.6 °C 1011.1 hPa West 14.8 km/h 24.5 km/h 66 % 0.0 mm
18:26 16.0 °C 9.6 °C 1011.1 hPa NNW 8.7 km/h 24.5 km/h 66 % 0.0 mm
18:31 16.0 °C 9.6 °C 1011.1 hPa West 16.9 km/h 21.2 km/h 66 % 0.0 mm
18:36 16.1 °C 9.5 °C 1011.1 hPa West 7.9 km/h 16.9 km/h 65 % 0.0 mm
18:41 16.0 °C 9.4 °C 1012.1 hPa WSW 11.6 km/h 16.9 km/h 65 % 0.0 mm
18:46 15.8 °C 9.0 °C 1012.1 hPa West 16.3 km/h 16.9 km/h 64 % 0.0 mm
18:51 15.8 °C 9.2 °C 1012.1 hPa West 16.3 km/h 16.9 km/h 65 % 0.0 mm
18:52 15.8 °C 9.2 °C 1012.1 hPa West 12.2 km/h 16.9 km/h 65 % 0.0 mm
18:57 16.0 °C 9.4 °C 1012.1 hPa West 6.9 km/h 16.3 km/h 65 % 0.0 mm
19:02 16.0 °C 9.6 °C 1012.1 hPa WSW 5.5 km/h 16.3 km/h 66 % 0.0 mm
19:07 16.0 °C 9.4 °C 1012.1 hPa West 13.0 km/h 14.0 km/h 65 % 0.0 mm
19:12 15.8 °C 9.0 °C 1012.1 hPa WSW 7.9 km/h 14.0 km/h 64 % 0.0 mm
19:18 15.6 °C 9.0 °C 1012.1 hPa West 6.9 km/h 13.0 km/h 65 % 0.0 mm
19:23 15.5 °C 8.9 °C 1012.1 hPa West 5.0 km/h 13.0 km/h 65 % 0.0 mm
19:28 15.3 °C 8.9 °C 1012.1 hPa West 8.7 km/h 9.7 km/h 66 % 0.0 mm
19:33 15.3 °C 8.9 °C 1012.1 hPa Calm   9.7 km/h 66 % 0.0 mm
19:38 15.2 °C 8.9 °C 1012.1 hPa West 6.1 km/h 7.2 km/h 66 % 0.0 mm
19:43 15.0 °C 8.7 °C 1012.1 hPa Calm   7.2 km/h 66 % 0.0 mm
19:48 14.8 °C 8.5 °C 1012.1 hPa Calm   5.5 km/h 66 % 0.0 mm
19:53 14.5 °C 8.4 °C 1012.1 hPa Calm   1.4 km/h 67 % 0.0 mm
19:58 14.2 °C 8.2 °C 1012.1 hPa Calm   1.4 km/h 67 % 0.0 mm
20:03 14.1 °C 8.1 °C 1012.1 hPa Calm     67 % 0.0 mm
20:08 13.8 °C 8.0 °C 1011.1 hPa Calm     68 % 0.0 mm
20:13 13.5 °C 7.9 °C 1011.1 hPa Calm   1.8 km/h 69 % 0.0 mm
20:18 13.2 °C 7.7 °C 1011.1 hPa Calm   1.8 km/h 69 % 0.0 mm
20:23 12.9 °C 7.4 °C 1011.1 hPa Calm   32.0 km/h 69 % 0.0 mm
20:28 12.7 °C 7.3 °C 1011.1 hPa Calm   32.0 km/h 70 % 0.0 mm
20:33 12.2 °C 6.9 °C 1011.1 hPa Calm     70 % 0.0 mm
20:34 12.2 °C 6.8 °C 1011.1 hPa Calm     70 % 0.0 mm
20:39 11.8 °C 6.8 °C 1012.1 hPa Calm     71 % 0.0 mm
20:44 11.6 °C 6.7 °C 1012.1 hPa Calm     72 % 0.0 mm
20:49 11.3 °C 6.6 °C 1012.1 hPa Calm     73 % 0.0 mm
20:54 11.1 °C 6.4 °C 1012.1 hPa Calm     73 % 0.0 mm
20:59 10.8 °C 6.3 °C 1012.1 hPa Calm     74 % 0.0 mm
21:04 10.7 °C 6.4 °C 1012.1 hPa Calm     75 % 0.0 mm
21:09 10.4 °C 6.3 °C 1012.1 hPa Calm     76 % 0.0 mm
21:14 10.2 °C 6.3 °C 1012.1 hPa Calm     77 % 0.0 mm
21:19 10.1 °C 6.4 °C 1012.1 hPa Calm     78 % 0.0 mm
21:24 10.0 °C 6.3 °C 1012.1 hPa Calm     78 % 0.0 mm
21:29 9.9 °C 6.4 °C 1012.1 hPa Calm     79 % 0.0 mm
21:34 9.9 °C 6.6 °C 1012.1 hPa Calm     80 % 0.0 mm
21:39 9.8 °C 6.7 °C 1012.1 hPa Calm     81 % 0.0 mm
21:44 9.7 °C 6.8 °C 1012.1 hPa Calm     82 % 0.0 mm
21:49 9.6 °C 6.7 °C 1012.1 hPa Calm     82 % 0.0 mm
21:54 9.6 °C 6.7 °C 1012.1 hPa Calm     82 % 0.0 mm
21:59 9.5 °C 6.8 °C 1012.1 hPa Calm     83 % 0.0 mm
22:04 9.4 °C 6.7 °C 1012.1 hPa Calm     83 % 0.0 mm
22:09 9.4 °C 6.8 °C 1012.1 hPa Calm     84 % 0.0 mm
22:14 9.4 °C 6.8 °C 1012.1 hPa Calm     84 % 0.0 mm
22:19 9.4 °C 6.8 °C 1012.1 hPa Calm     84 % 0.0 mm
22:24 9.4 °C 7.0 °C 1012.1 hPa Calm     85 % 0.0 mm
22:29 9.3 °C 6.9 °C 1012.1 hPa Calm     85 % 0.0 mm
22:34 9.2 °C 6.8 °C 1012.1 hPa Calm     85 % 0.0 mm
22:39 9.2 °C 6.8 °C 1012.1 hPa Calm     85 % 0.0 mm
22:44 9.1 °C 6.9 °C 1012.1 hPa ESE 1.8 km/h 1.8 km/h 86 % 0.0 mm
22:50 9.1 °C 6.9 °C 1012.1 hPa Calm   1.8 km/h 86 % 0.0 mm
22:55 9.1 °C 7.1 °C 1012.1 hPa Calm   1.8 km/h 87 % 0.0 mm
23:00 9.1 °C 7.1 °C 1012.1 hPa Calm     87 % 0.0 mm
23:05 8.9 °C 6.9 °C 1012.1 hPa Calm     87 % 0.0 mm
23:10 8.9 °C 6.9 °C 1012.1 hPa Calm     87 % 0.0 mm
23:15 8.8 °C 6.8 °C 1012.1 hPa Calm     87 % 0.0 mm
23:20 8.8 °C 6.8 °C 1012.1 hPa Calm     87 % 0.0 mm
23:25 8.7 °C 6.8 °C 1011.1 hPa Calm     88 % 0.0 mm
23:30 8.7 °C 6.8 °C 1011.1 hPa Calm     88 % 0.0 mm
23:35 8.7 °C 6.8 °C 1011.1 hPa Calm   3.2 km/h 88 % 0.0 mm
23:40 8.7 °C 7.0 °C 1011.1 hPa Calm   3.2 km/h 89 % 0.0 mm
23:45 8.8 °C 7.1 °C 1011.1 hPa Calm   2.6 km/h 89 % 0.0 mm
23:50 8.8 °C 7.1 °C 1011.1 hPa Calm   1.8 km/h 89 % 0.0 mm
23:55 8.8 °C 7.3 °C 1011.1 hPa East 1.4 km/h 4.0 km/h 90 % 0.0 mm
Le Gheer Warneton
Courtoisie de Weather Underground - 2.5 mb

Mise a jour : 18/12/2017 23:13:12
Généré par Cumulus 1.9.4 (1099)